Location: Béaulencourt
(50.0796°N, 2.8795°E)
Time: 12:05:31
(UTC+00:00)

ARIANE 6 FM1 Upper Stage - Pass Details

Date: 17 March 2026
Orbit: 524 x 604 km, 62.0° (Epoch: 14 April)

Event Time Altitude Azimuth Distance (km) Brightness Sun altitude
Exits shadow 02:46:40 27° 81° (E) 1,068 4.5 -29.5°
Drops below altitude 10° 02:48:52 10° 58° (ENE) 1,794 6.2 -29.2°
Sets 02:51:09 0° 51° (NE) 2,680 7.4 -28.9°
